Location: Sungai Bunut
(2.6333°N, 113.7333°E)
Time: 11:40:30
(UTC+00:00)

Cosmos 2181 Rocket - Pass Details

Date: 16 October 2021
Orbit: 952 x 1014 km, 82.9° (Epoch: 28 November)

Event Time Altitude Azimuth Distance (km) Brightness Sun altitude
Rises 20:29:43 0° 178° (S) 3,630 7.1 -25.3°
Reaches altitude 10° 20:32:14 10° 176° (S) 2,680 6.4 -24.7°
Maximum altitude 20:38:18 70° 93° (E) 1,010 4.2 -23.2°
Drops below altitude 10° 20:44:22 10° 10° (N) 2,674 6.3 -21.7°
Sets 20:46:52 0° 8° (N) 3,622 7.0 -21.1°
